Retour au catalogue

KYOKKO 1 DEB

ActifUNKNOWN
NORAD 12330·DEBRIS·🇯🇵 Japan

Lancé Feb 4, 1978 depuis Uchinoura Space Center

Loading…

Prochains Passages (prochaines 24 heures)

TLE

FraisSource: Space-Track

Époque: Sep 14, 2026, 20:11 UTC

1 12330U 78014D   26257.84117678  .00000018  00000-0  66274-4 0  9991
2 12330  65.3631  93.0445 1898496 346.5559   9.0800 10.78501027676245

Suivez KYOKKO 1 DEB en temps réel avec AllMySat

Download on the App Store